Year,Month,Day,Hour,Minute,Value (Times are PST for temperature in C)
2018,08,11,00,00,21.80
2018,08,11,00,01,21.70
2018,08,11,00,02,21.70
2018,08,11,00,03,21.70
2018,08,11,00,04,21.70
2018,08,11,00,05,21.70
2018,08,11,00,06,21.70
2018,08,11,00,07,21.70
2018,08,11,00,08,21.70
2018,08,11,00,09,21.70
2018,08,11,00,10,21.70
2018,08,11,00,11,21.60
2018,08,11,00,12,21.60
2018,08,11,00,13,21.60
2018,08,11,00,14,21.60
2018,08,11,00,15,21.60
2018,08,11,00,16,21.60
2018,08,11,00,17,21.50
2018,08,11,00,18,21.40
2018,08,11,00,19,21.40
2018,08,11,00,20,21.40
2018,08,11,00,21,21.30
2018,08,11,00,22,21.30
2018,08,11,00,23,21.30
2018,08,11,00,24,21.20
2018,08,11,00,25,21.20
2018,08,11,00,26,21.20
2018,08,11,00,27,21.20
2018,08,11,00,28,21.20
2018,08,11,00,29,21.20
2018,08,11,00,30,21.10
2018,08,11,00,31,21.10
2018,08,11,00,32,21.10
2018,08,11,00,33,21.00
2018,08,11,00,34,21.00
2018,08,11,00,35,21.00
2018,08,11,00,36,20.90
2018,08,11,00,37,20.90
2018,08,11,00,38,20.90
2018,08,11,00,39,20.90
2018,08,11,00,40,20.80
2018,08,11,00,41,20.80
2018,08,11,00,42,20.80
2018,08,11,00,43,20.80
2018,08,11,00,44,20.70
2018,08,11,00,45,20.70
2018,08,11,00,46,20.70
2018,08,11,00,47,20.60
2018,08,11,00,48,20.60
2018,08,11,00,49,20.60
2018,08,11,00,50,20.60
2018,08,11,00,51,20.60
2018,08,11,00,52,20.50
2018,08,11,00,53,20.50
2018,08,11,00,54,20.40
2018,08,11,00,55,20.40
2018,08,11,00,56,20.40
2018,08,11,00,57,20.40
2018,08,11,00,58,20.30
2018,08,11,00,59,20.30
2018,08,11,01,00,20.30
2018,08,11,01,01,20.30
2018,08,11,01,02,20.30
2018,08,11,01,03,20.30
2018,08,11,01,04,20.30
2018,08,11,01,05,20.30
2018,08,11,01,06,20.20
2018,08,11,01,07,20.20
2018,08,11,01,08,20.20
2018,08,11,01,09,20.20
2018,08,11,01,10,20.20
2018,08,11,01,11,20.20
2018,08,11,01,12,20.20
2018,08,11,01,13,20.20
2018,08,11,01,14,20.20
2018,08,11,01,15,20.20
2018,08,11,01,16,20.20
2018,08,11,01,17,20.10
2018,08,11,01,18,20.10
2018,08,11,01,19,20.10
2018,08,11,01,20,20.10
2018,08,11,01,21,20.10
2018,08,11,01,22,20.10
2018,08,11,01,23,20.10
2018,08,11,01,24,20.10
2018,08,11,01,25,20.10
2018,08,11,01,26,20.10
2018,08,11,01,27,20.00
2018,08,11,01,28,20.00
2018,08,11,01,29,20.10
2018,08,11,01,30,20.10
2018,08,11,01,31,20.10
2018,08,11,01,32,20.10
2018,08,11,01,33,20.10
2018,08,11,01,34,20.10
2018,08,11,01,35,20.10
2018,08,11,01,36,20.10
2018,08,11,01,37,20.10
2018,08,11,01,38,20.10
2018,08,11,01,39,20.10
2018,08,11,01,40,20.10
2018,08,11,01,41,20.10
2018,08,11,01,42,20.10
2018,08,11,01,43,20.10
2018,08,11,01,44,20.00
2018,08,11,01,45,20.00
2018,08,11,01,46,19.90
2018,08,11,01,47,19.90
2018,08,11,01,48,19.90
2018,08,11,01,49,19.90
2018,08,11,01,50,19.90
2018,08,11,01,51,19.90
2018,08,11,01,52,19.80
2018,08,11,01,53,19.80
2018,08,11,01,54,19.80
2018,08,11,01,55,19.80
2018,08,11,01,56,19.80
2018,08,11,01,57,19.80
2018,08,11,01,58,19.80
2018,08,11,01,59,19.80
2018,08,11,02,00,19.80
2018,08,11,02,01,19.80
2018,08,11,02,02,19.80
2018,08,11,02,03,19.80
2018,08,11,02,04,19.80
2018,08,11,02,05,19.80
2018,08,11,02,06,19.80
2018,08,11,02,07,19.80
2018,08,11,02,08,19.80
2018,08,11,02,09,19.80
2018,08,11,02,10,19.80
2018,08,11,02,11,19.80
2018,08,11,02,12,19.80
2018,08,11,02,13,19.80
2018,08,11,02,14,19.70
2018,08,11,02,15,19.70
2018,08,11,02,16,19.70
2018,08,11,02,17,19.60
2018,08,11,02,18,19.60
2018,08,11,02,19,19.50
2018,08,11,02,20,19.40
2018,08,11,02,21,19.40
2018,08,11,02,22,19.40
2018,08,11,02,23,19.40
2018,08,11,02,24,19.40
2018,08,11,02,25,19.40
2018,08,11,02,26,19.40
2018,08,11,02,27,19.40
2018,08,11,02,28,19.40
2018,08,11,02,29,19.40
2018,08,11,02,30,19.40
2018,08,11,02,31,19.50
2018,08,11,02,32,19.50
2018,08,11,02,33,19.50
2018,08,11,02,34,19.50
2018,08,11,02,35,19.50
2018,08,11,02,36,19.50
2018,08,11,02,37,19.50
2018,08,11,02,38,19.50
2018,08,11,02,39,19.40
2018,08,11,02,40,19.40
2018,08,11,02,41,19.40
2018,08,11,02,42,19.40
2018,08,11,02,43,19.30
2018,08,11,02,44,19.30
2018,08,11,02,45,19.30
2018,08,11,02,46,19.30
2018,08,11,02,47,19.20
2018,08,11,02,48,19.20
2018,08,11,02,49,19.20
2018,08,11,02,50,19.10
2018,08,11,02,51,19.10
2018,08,11,02,52,19.10
2018,08,11,02,53,19.10
2018,08,11,02,54,19.00
2018,08,11,02,55,19.00
2018,08,11,02,56,18.90
2018,08,11,02,57,18.90
2018,08,11,02,58,18.90
2018,08,11,02,59,18.90
2018,08,11,03,00,18.80
2018,08,11,03,01,18.80
2018,08,11,03,02,18.80
2018,08,11,03,03,18.80
2018,08,11,03,04,18.70
2018,08,11,03,05,18.70
2018,08,11,03,06,18.70
2018,08,11,03,07,18.70
2018,08,11,03,08,18.60
2018,08,11,03,09,18.60
2018,08,11,03,10,18.60
2018,08,11,03,11,18.60
2018,08,11,03,12,18.50
2018,08,11,03,13,18.50
2018,08,11,03,14,18.40
2018,08,11,03,15,18.40
2018,08,11,03,16,18.40
2018,08,11,03,17,18.40
2018,08,11,03,18,18.40
2018,08,11,03,19,18.30
2018,08,11,03,20,18.30
2018,08,11,03,21,18.30
2018,08,11,03,22,18.30
2018,08,11,03,23,18.30
2018,08,11,03,24,18.30
2018,08,11,03,25,18.30
2018,08,11,03,26,18.30
2018,08,11,03,27,18.30
2018,08,11,03,28,18.30
2018,08,11,03,29,18.30
2018,08,11,03,30,18.30
2018,08,11,03,31,18.20
2018,08,11,03,32,18.20
2018,08,11,03,33,18.20
2018,08,11,03,34,18.20
2018,08,11,03,35,18.20
2018,08,11,03,36,18.20
2018,08,11,03,37,18.20
2018,08,11,03,38,18.20
2018,08,11,03,39,18.20
2018,08,11,03,40,18.20
2018,08,11,03,41,18.20
2018,08,11,03,42,18.20
2018,08,11,03,43,18.20
2018,08,11,03,44,18.20
2018,08,11,03,45,18.20
2018,08,11,03,46,18.20
2018,08,11,03,47,18.20
2018,08,11,03,48,18.10
2018,08,11,03,49,18.10
2018,08,11,03,50,18.10
2018,08,11,03,51,18.10
2018,08,11,03,52,18.10
2018,08,11,03,53,18.10
2018,08,11,03,54,18.20
2018,08,11,03,55,18.20
2018,08,11,03,56,18.20
2018,08,11,03,57,18.20
2018,08,11,03,58,18.20
2018,08,11,03,59,18.20
2018,08,11,04,00,18.20
2018,08,11,04,01,18.20
2018,08,11,04,02,18.20
2018,08,11,04,03,18.20
2018,08,11,04,04,18.20
2018,08,11,04,05,18.20
2018,08,11,04,06,18.20
2018,08,11,04,07,18.20
2018,08,11,04,08,18.30
2018,08,11,04,09,18.30
2018,08,11,04,10,18.30
2018,08,11,04,11,18.30
2018,08,11,04,12,18.30
2018,08,11,04,13,18.30
2018,08,11,04,14,18.30
2018,08,11,04,15,18.30
2018,08,11,04,16,18.20
2018,08,11,04,17,18.20
2018,08,11,04,18,18.20
2018,08,11,04,19,18.20
2018,08,11,04,20,18.20
2018,08,11,04,21,18.20
2018,08,11,04,22,18.20
2018,08,11,04,23,18.20
2018,08,11,04,24,18.20
2018,08,11,04,25,18.20
2018,08,11,04,26,18.20
2018,08,11,04,27,18.10
2018,08,11,04,28,18.10
2018,08,11,04,29,18.10
2018,08,11,04,30,18.10
2018,08,11,04,31,18.00
2018,08,11,04,32,18.00
2018,08,11,04,33,17.90
2018,08,11,04,34,17.90
2018,08,11,04,35,17.90
2018,08,11,04,36,17.90
2018,08,11,04,37,17.90
2018,08,11,04,38,17.90
2018,08,11,04,39,17.90
2018,08,11,04,40,17.90
2018,08,11,04,41,17.80
2018,08,11,04,42,17.80
2018,08,11,04,43,17.80
2018,08,11,04,44,17.80
2018,08,11,04,45,17.80
2018,08,11,04,46,17.80
2018,08,11,04,47,17.80
2018,08,11,04,48,17.80
2018,08,11,04,49,17.80
2018,08,11,04,50,17.80
2018,08,11,04,51,17.80
2018,08,11,04,52,17.80
2018,08,11,04,53,17.80
2018,08,11,04,54,17.80
2018,08,11,04,55,17.80
2018,08,11,04,56,17.80
2018,08,11,04,57,17.80
2018,08,11,04,58,17.80
2018,08,11,04,59,17.80
2018,08,11,05,00,17.80
2018,08,11,05,01,17.70
2018,08,11,05,02,17.70
2018,08,11,05,03,17.70
2018,08,11,05,04,17.70
2018,08,11,05,05,17.70
2018,08,11,05,06,17.70
2018,08,11,05,07,17.70
2018,08,11,05,08,17.70
2018,08,11,05,09,17.70
2018,08,11,05,10,17.70
2018,08,11,05,11,17.70
2018,08,11,05,12,17.70
2018,08,11,05,13,17.70
2018,08,11,05,14,17.70
2018,08,11,05,15,17.70
2018,08,11,05,16,17.70
2018,08,11,05,17,17.70
2018,08,11,05,18,17.70
2018,08,11,05,19,17.70
2018,08,11,05,20,17.70
2018,08,11,05,21,17.70
2018,08,11,05,22,17.70
2018,08,11,05,23,17.70
2018,08,11,05,24,17.70
2018,08,11,05,25,17.70
2018,08,11,05,26,17.70
2018,08,11,05,27,17.70
2018,08,11,05,28,17.70
2018,08,11,05,29,17.80
2018,08,11,05,30,17.80
2018,08,11,05,31,17.80
2018,08,11,05,32,17.80
2018,08,11,05,33,17.80
2018,08,11,05,34,17.80
2018,08,11,05,35,17.80
2018,08,11,05,36,17.80
2018,08,11,05,37,17.80
2018,08,11,05,38,17.70
2018,08,11,05,39,17.70
2018,08,11,05,40,17.70
2018,08,11,05,41,17.70
2018,08,11,05,42,17.80
2018,08,11,05,43,17.80
2018,08,11,05,44,17.80
2018,08,11,05,45,17.80
2018,08,11,05,46,17.80
2018,08,11,05,47,17.80
2018,08,11,05,48,17.80
2018,08,11,05,49,17.80
2018,08,11,05,50,17.80
2018,08,11,05,51,17.80
2018,08,11,05,52,17.80
2018,08,11,05,53,17.80
2018,08,11,05,54,17.80
2018,08,11,05,55,17.80
2018,08,11,05,56,17.80
2018,08,11,05,57,17.80
2018,08,11,05,58,17.80
2018,08,11,05,59,17.80
2018,08,11,06,00,17.80
2018,08,11,06,01,17.80
2018,08,11,06,02,17.80
2018,08,11,06,03,17.70
2018,08,11,06,04,17.70
2018,08,11,06,05,17.70
2018,08,11,06,06,17.70
2018,08,11,06,07,17.70
2018,08,11,06,08,17.70
2018,08,11,06,09,17.70
2018,08,11,06,10,17.70
2018,08,11,06,11,17.70
2018,08,11,06,12,17.70
2018,08,11,06,13,17.70
2018,08,11,06,14,17.70
2018,08,11,06,15,17.70
2018,08,11,06,16,17.70
2018,08,11,06,17,17.70
2018,08,11,06,18,17.70
2018,08,11,06,19,17.70
2018,08,11,06,20,17.70
2018,08,11,06,21,17.70
2018,08,11,06,22,17.70
2018,08,11,06,23,17.70
2018,08,11,06,24,17.70
2018,08,11,06,25,17.60
2018,08,11,06,26,17.60
2018,08,11,06,27,17.60
2018,08,11,06,28,17.60
2018,08,11,06,29,17.60
2018,08,11,06,30,17.60
2018,08,11,06,31,17.70
2018,08,11,06,32,17.70
2018,08,11,06,33,17.70
2018,08,11,06,34,17.70
2018,08,11,06,35,17.60
2018,08,11,06,36,17.60
2018,08,11,06,37,17.60
2018,08,11,06,38,17.60
2018,08,11,06,39,17.60
2018,08,11,06,40,17.60
2018,08,11,06,41,17.60
2018,08,11,06,42,17.50
2018,08,11,06,43,17.50
2018,08,11,06,44,17.50
2018,08,11,06,45,17.50
2018,08,11,06,46,17.50
2018,08,11,06,47,17.50
2018,08,11,06,48,17.40
2018,08,11,06,49,17.40
2018,08,11,06,50,17.30
2018,08,11,06,51,17.20
2018,08,11,06,52,17.10
2018,08,11,06,53,17.00
2018,08,11,06,54,16.90
2018,08,11,06,55,16.90
2018,08,11,06,56,16.90
2018,08,11,06,57,16.80
2018,08,11,06,58,16.80
2018,08,11,06,59,16.80
2018,08,11,07,00,16.80
2018,08,11,07,01,16.80
2018,08,11,07,02,16.80
2018,08,11,07,03,16.80
2018,08,11,07,04,16.80
2018,08,11,07,05,16.80
2018,08,11,07,06,16.80
2018,08,11,07,07,16.80
2018,08,11,07,08,16.80
2018,08,11,07,09,16.80
2018,08,11,07,10,16.80
2018,08,11,07,11,16.80
2018,08,11,07,12,16.80
2018,08,11,07,13,16.80
2018,08,11,07,14,16.80
2018,08,11,07,15,16.80
2018,08,11,07,16,16.80
2018,08,11,07,17,16.80
2018,08,11,07,18,16.80
2018,08,11,07,19,16.80
2018,08,11,07,20,16.80
2018,08,11,07,21,16.80
2018,08,11,07,22,16.70
2018,08,11,07,23,16.70
2018,08,11,07,24,16.70
2018,08,11,07,25,16.70
2018,08,11,07,26,16.70
2018,08,11,07,27,16.70
2018,08,11,07,28,16.70
2018,08,11,07,29,16.70
2018,08,11,07,30,16.70
2018,08,11,07,31,16.80
2018,08,11,07,32,16.80
2018,08,11,07,33,16.80
2018,08,11,07,34,16.80
2018,08,11,07,35,16.80
2018,08,11,07,36,16.80
2018,08,11,07,37,16.90
2018,08,11,07,38,16.90
2018,08,11,07,39,17.00
2018,08,11,07,40,17.00
2018,08,11,07,41,17.10
2018,08,11,07,42,17.10
2018,08,11,07,43,17.10
2018,08,11,07,44,17.10
2018,08,11,07,45,17.10
2018,08,11,07,46,17.10
2018,08,11,07,47,17.10
2018,08,11,07,48,17.10
2018,08,11,07,49,17.10
2018,08,11,07,50,17.10
2018,08,11,07,51,17.20
2018,08,11,07,52,17.20
2018,08,11,07,53,17.20
2018,08,11,07,54,17.20
2018,08,11,07,55,17.30
2018,08,11,07,56,17.30
2018,08,11,07,57,17.20
2018,08,11,07,58,17.20
2018,08,11,07,59,17.10
2018,08,11,08,00,17.10
2018,08,11,08,01,17.10
2018,08,11,08,02,17.10
2018,08,11,08,03,17.10
2018,08,11,08,04,17.00
2018,08,11,08,05,17.00
2018,08,11,08,06,17.00
2018,08,11,08,07,17.10
2018,08,11,08,08,17.10
2018,08,11,08,09,17.10
2018,08,11,08,10,17.10
2018,08,11,08,11,17.00
2018,08,11,08,12,17.00
2018,08,11,08,13,16.90
2018,08,11,08,14,16.90
2018,08,11,08,15,16.90
2018,08,11,08,16,16.90
2018,08,11,08,17,16.90
2018,08,11,08,18,16.90
2018,08,11,08,19,16.90
2018,08,11,08,20,16.90
2018,08,11,08,21,16.90
2018,08,11,08,22,16.90
2018,08,11,08,23,16.90
2018,08,11,08,24,16.90
2018,08,11,08,25,17.00
2018,08,11,08,26,17.00
2018,08,11,08,27,17.00
2018,08,11,08,28,17.10
2018,08,11,08,29,17.10
2018,08,11,08,30,17.10
2018,08,11,08,31,17.10
2018,08,11,08,32,17.00
2018,08,11,08,33,17.00
2018,08,11,08,34,17.00
2018,08,11,08,35,17.00
2018,08,11,08,36,17.10
2018,08,11,08,37,17.10
2018,08,11,08,38,17.20
2018,08,11,08,39,17.20
2018,08,11,08,40,17.20
2018,08,11,08,41,17.20
2018,08,11,08,42,17.20
2018,08,11,08,43,17.20
2018,08,11,08,44,17.20
2018,08,11,08,45,17.10
2018,08,11,08,46,17.10
2018,08,11,08,47,17.20
2018,08,11,08,48,17.20
2018,08,11,08,49,17.20
2018,08,11,08,50,17.20
2018,08,11,08,51,17.30
2018,08,11,08,52,17.20
2018,08,11,08,53,17.20
2018,08,11,08,54,17.20
2018,08,11,08,55,17.20
2018,08,11,08,56,17.20
2018,08,11,08,57,17.20
2018,08,11,08,58,17.10
2018,08,11,08,59,17.10
2018,08,11,09,00,17.10
2018,08,11,09,01,17.00
2018,08,11,09,02,17.00
2018,08,11,09,03,17.00
2018,08,11,09,04,17.00
2018,08,11,09,05,17.00
2018,08,11,09,06,17.00
2018,08,11,09,07,17.10
2018,08,11,09,08,17.10
2018,08,11,09,09,17.20
2018,08,11,09,10,17.20
2018,08,11,09,11,17.20
2018,08,11,09,12,17.30
2018,08,11,09,13,17.30
2018,08,11,09,14,17.30
2018,08,11,09,15,17.20
2018,08,11,09,16,17.20
2018,08,11,09,17,17.20
2018,08,11,09,18,17.20
2018,08,11,09,19,17.20
2018,08,11,09,20,17.20
2018,08,11,09,21,17.20
2018,08,11,09,22,17.20
2018,08,11,09,23,17.20
2018,08,11,09,24,17.20
2018,08,11,09,25,17.20
2018,08,11,09,26,17.20
2018,08,11,09,27,17.20
2018,08,11,09,28,17.20
2018,08,11,09,29,17.10
2018,08,11,09,30,17.10
2018,08,11,09,31,17.10
2018,08,11,09,32,17.20
2018,08,11,09,33,17.20
2018,08,11,09,34,17.20
2018,08,11,09,35,17.20
2018,08,11,09,36,17.20
2018,08,11,09,37,17.20
2018,08,11,09,38,17.20
2018,08,11,09,39,17.20
2018,08,11,09,40,17.20
2018,08,11,09,41,17.20
2018,08,11,09,42,17.20
2018,08,11,09,43,17.20
2018,08,11,09,44,17.20
2018,08,11,09,45,17.20
2018,08,11,09,46,17.20
2018,08,11,09,47,17.20
2018,08,11,09,48,17.20
2018,08,11,09,49,17.20
2018,08,11,09,50,17.20
2018,08,11,09,51,17.20
2018,08,11,09,52,17.20
2018,08,11,09,53,17.20
2018,08,11,09,54,17.20
2018,08,11,09,55,17.20
2018,08,11,09,56,17.30
2018,08,11,09,57,17.30
2018,08,11,09,58,17.30
2018,08,11,09,59,17.30
2018,08,11,10,00,17.30
2018,08,11,10,01,17.30
2018,08,11,10,02,17.30
2018,08,11,10,03,17.30
2018,08,11,10,04,17.40
2018,08,11,10,05,17.40
2018,08,11,10,06,17.40
2018,08,11,10,07,17.40
2018,08,11,10,08,17.40
2018,08,11,10,09,17.40
2018,08,11,10,10,17.40
2018,08,11,10,11,17.40
2018,08,11,10,12,17.40
2018,08,11,10,13,17.40
2018,08,11,10,14,17.40
2018,08,11,10,15,17.40
2018,08,11,10,16,17.40
2018,08,11,10,17,17.40
2018,08,11,10,18,17.50
2018,08,11,10,19,17.50
2018,08,11,10,20,17.50
2018,08,11,10,21,17.60
2018,08,11,10,22,17.60
2018,08,11,10,23,17.60
2018,08,11,10,24,17.60
2018,08,11,10,25,17.60
2018,08,11,10,26,17.50
2018,08,11,10,27,17.40
2018,08,11,10,28,17.40
2018,08,11,10,29,17.40
2018,08,11,10,30,17.30
2018,08,11,10,31,17.30
2018,08,11,10,32,17.20
2018,08,11,10,33,17.20
2018,08,11,10,34,17.20
2018,08,11,10,35,17.20
2018,08,11,10,36,17.20
2018,08,11,10,37,17.30
2018,08,11,10,38,17.30
2018,08,11,10,39,17.30
2018,08,11,10,40,17.30
2018,08,11,10,41,17.30
2018,08,11,10,42,17.30
2018,08,11,10,43,17.30
2018,08,11,10,44,17.30
2018,08,11,10,45,17.30
2018,08,11,10,46,17.30
2018,08,11,10,47,17.30
2018,08,11,10,48,17.30
2018,08,11,10,49,17.30
2018,08,11,10,50,17.30
2018,08,11,10,51,17.30
2018,08,11,10,52,17.20
2018,08,11,10,53,17.20
2018,08,11,10,54,17.20
2018,08,11,10,55,17.20
2018,08,11,10,56,17.20
2018,08,11,10,57,17.30
2018,08,11,10,58,17.30
2018,08,11,10,59,17.30
2018,08,11,11,00,17.30
2018,08,11,11,01,17.30
2018,08,11,11,02,17.30
2018,08,11,11,03,17.30
2018,08,11,11,04,17.30
2018,08,11,11,05,17.30
2018,08,11,11,06,17.30
2018,08,11,11,07,17.30
2018,08,11,11,08,17.30
2018,08,11,11,09,17.30
2018,08,11,11,10,17.30
2018,08,11,11,11,17.30
2018,08,11,11,12,17.30
2018,08,11,11,13,17.30
2018,08,11,11,14,17.30
2018,08,11,11,15,17.30
2018,08,11,11,16,17.30
2018,08,11,11,17,17.30
2018,08,11,11,18,17.30
2018,08,11,11,19,17.40
2018,08,11,11,20,17.40
2018,08,11,11,21,17.50
2018,08,11,11,22,17.50
2018,08,11,11,23,17.50
2018,08,11,11,24,17.60
2018,08,11,11,25,17.60
2018,08,11,11,26,17.60
2018,08,11,11,27,17.60
2018,08,11,11,28,17.60
2018,08,11,11,29,17.60
2018,08,11,11,30,17.60
2018,08,11,11,31,17.60
2018,08,11,11,32,17.60
2018,08,11,11,33,17.60
2018,08,11,11,34,17.60
2018,08,11,11,35,17.60
2018,08,11,11,36,17.60
2018,08,11,11,37,17.50
2018,08,11,11,38,17.50
2018,08,11,11,39,17.50
2018,08,11,11,40,17.50
2018,08,11,11,41,17.50
2018,08,11,11,42,17.50
2018,08,11,11,43,17.40
2018,08,11,11,44,17.50
2018,08,11,11,45,17.50
2018,08,11,11,46,17.50
2018,08,11,11,47,17.50
2018,08,11,11,48,17.50
2018,08,11,11,49,17.50
2018,08,11,11,50,17.60
2018,08,11,11,51,17.60
2018,08,11,11,52,17.60
2018,08,11,11,53,17.60
2018,08,11,11,54,17.60
2018,08,11,11,55,17.60
2018,08,11,11,56,17.60
2018,08,11,11,57,17.70
2018,08,11,11,58,17.70
2018,08,11,11,59,17.80
2018,08,11,12,00,17.80
2018,08,11,12,01,17.80
2018,08,11,12,02,17.80
2018,08,11,12,03,17.80
2018,08,11,12,04,17.80
2018,08,11,12,05,17.80
2018,08,11,12,06,17.80
2018,08,11,12,07,17.70
2018,08,11,12,08,17.70
2018,08,11,12,09,17.70
2018,08,11,12,10,17.70
2018,08,11,12,11,17.70
2018,08,11,12,12,17.70
2018,08,11,12,13,17.60
2018,08,11,12,14,17.60
2018,08,11,12,15,17.60
2018,08,11,12,16,17.50
2018,08,11,12,17,17.50
2018,08,11,12,18,17.40
2018,08,11,12,19,17.40
2018,08,11,12,20,17.40
2018,08,11,12,21,17.40
2018,08,11,12,22,17.50
2018,08,11,12,23,17.50
2018,08,11,12,24,17.50
2018,08,11,12,25,17.60
2018,08,11,12,26,17.70
2018,08,11,12,27,17.80
2018,08,11,12,28,17.80
2018,08,11,12,29,17.90
2018,08,11,12,30,18.00
2018,08,11,12,31,18.00
2018,08,11,12,32,18.10
2018,08,11,12,33,18.10
2018,08,11,12,34,18.20
2018,08,11,12,35,18.20
2018,08,11,12,36,18.30
2018,08,11,12,37,18.40
2018,08,11,12,38,18.40
2018,08,11,12,39,18.30
2018,08,11,12,40,18.20
2018,08,11,12,41,18.20
2018,08,11,12,42,18.10
2018,08,11,12,43,18.20
2018,08,11,12,44,18.20
2018,08,11,12,45,18.30
2018,08,11,12,46,18.40
2018,08,11,12,47,18.50
2018,08,11,12,48,18.50
2018,08,11,12,49,18.70
2018,08,11,12,50,18.80
2018,08,11,12,51,18.90
2018,08,11,12,52,18.90
2018,08,11,12,53,19.00
2018,08,11,12,54,19.10
2018,08,11,12,55,19.10
2018,08,11,12,56,19.10
2018,08,11,12,57,19.20
2018,08,11,12,58,19.30
2018,08,11,12,59,19.30
2018,08,11,13,00,19.40
2018,08,11,13,01,19.50
2018,08,11,13,02,19.60
2018,08,11,13,03,19.60
2018,08,11,13,04,19.60
2018,08,11,13,05,19.50
2018,08,11,13,06,19.40
2018,08,11,13,07,19.30
2018,08,11,13,08,19.20
2018,08,11,13,09,19.20
2018,08,11,13,10,19.00
2018,08,11,13,11,18.90
2018,08,11,13,12,18.80
2018,08,11,13,13,18.70
2018,08,11,13,14,18.80
2018,08,11,13,15,18.80
2018,08,11,13,16,18.80
2018,08,11,13,17,18.80
2018,08,11,13,18,18.80
2018,08,11,13,19,18.80
2018,08,11,13,20,18.80
2018,08,11,13,21,18.80
2018,08,11,13,22,18.80
2018,08,11,13,23,18.90
2018,08,11,13,24,18.90
2018,08,11,13,25,19.00
2018,08,11,13,26,18.90
2018,08,11,13,27,18.90
2018,08,11,13,28,18.80
2018,08,11,13,29,18.70
2018,08,11,13,30,18.70
2018,08,11,13,31,18.70
2018,08,11,13,32,18.70
2018,08,11,13,33,18.60
2018,08,11,13,34,18.60
2018,08,11,13,35,18.60
2018,08,11,13,36,18.60
2018,08,11,13,37,18.60
2018,08,11,13,38,18.60
2018,08,11,13,39,18.60
2018,08,11,13,40,18.60
2018,08,11,13,41,18.60
2018,08,11,13,42,18.60
2018,08,11,13,43,18.60
2018,08,11,13,44,18.60
2018,08,11,13,45,18.60
2018,08,11,13,46,18.60
2018,08,11,13,47,18.60
2018,08,11,13,48,18.60
2018,08,11,13,49,18.70
2018,08,11,13,50,18.70
2018,08,11,13,51,18.80
2018,08,11,13,52,18.80
2018,08,11,13,53,18.90
2018,08,11,13,54,18.90
2018,08,11,13,55,18.90
2018,08,11,13,56,18.90
2018,08,11,13,57,18.90
2018,08,11,13,58,18.90
2018,08,11,13,59,19.00
2018,08,11,14,00,19.00
2018,08,11,14,01,19.00
2018,08,11,14,02,19.10
2018,08,11,14,03,19.10
2018,08,11,14,04,19.10
2018,08,11,14,05,19.10
2018,08,11,14,06,19.10
2018,08,11,14,07,19.10
2018,08,11,14,08,19.00
2018,08,11,14,09,18.90
2018,08,11,14,10,18.90
2018,08,11,14,11,18.90
2018,08,11,14,12,18.90
2018,08,11,14,13,18.80
2018,08,11,14,14,18.80
2018,08,11,14,15,18.80
2018,08,11,14,16,18.80
2018,08,11,14,17,18.80
2018,08,11,14,18,18.80
2018,08,11,14,19,18.80
2018,08,11,14,20,18.80
2018,08,11,14,21,18.80
2018,08,11,14,22,18.80
2018,08,11,14,23,18.80
2018,08,11,14,24,18.80
2018,08,11,14,25,18.70
2018,08,11,14,26,18.70
2018,08,11,14,27,18.70
2018,08,11,14,28,18.70
2018,08,11,14,29,18.70
2018,08,11,14,30,18.70
2018,08,11,14,31,18.70
2018,08,11,14,32,18.70
2018,08,11,14,33,18.70
2018,08,11,14,34,18.60
2018,08,11,14,35,18.70
2018,08,11,14,36,18.70
2018,08,11,14,37,18.70
2018,08,11,14,38,18.70
2018,08,11,14,39,18.80
2018,08,11,14,40,18.90
2018,08,11,14,41,19.00
2018,08,11,14,42,19.10
2018,08,11,14,43,19.30
2018,08,11,14,44,19.40
2018,08,11,14,45,19.60
2018,08,11,14,46,19.70
2018,08,11,14,47,19.70
2018,08,11,14,48,19.80
2018,08,11,14,49,19.90
2018,08,11,14,50,19.90
2018,08,11,14,51,19.90
2018,08,11,14,52,19.80
2018,08,11,14,53,19.90
2018,08,11,14,54,20.00
2018,08,11,14,55,20.10
2018,08,11,14,56,20.20
2018,08,11,14,57,20.30
2018,08,11,14,58,20.50
2018,08,11,14,59,20.60
2018,08,11,15,00,20.60
2018,08,11,15,01,20.60
2018,08,11,15,02,20.50
2018,08,11,15,03,20.40
2018,08,11,15,04,20.30
2018,08,11,15,05,20.30
2018,08,11,15,06,20.20
2018,08,11,15,07,20.20
2018,08,11,15,08,20.20
2018,08,11,15,09,20.20
2018,08,11,15,10,20.20
2018,08,11,15,11,20.30
2018,08,11,15,12,20.30
2018,08,11,15,13,20.40
2018,08,11,15,14,20.40
2018,08,11,15,15,20.40
2018,08,11,15,16,20.40
2018,08,11,15,17,20.40
2018,08,11,15,18,20.40
2018,08,11,15,19,20.50
2018,08,11,15,20,20.50
2018,08,11,15,21,20.50
2018,08,11,15,22,20.60
2018,08,11,15,23,20.60
2018,08,11,15,24,20.70
2018,08,11,15,25,20.80
2018,08,11,15,26,20.90
2018,08,11,15,27,20.90
2018,08,11,15,28,20.90
2018,08,11,15,29,20.90
2018,08,11,15,30,20.90
2018,08,11,15,31,20.90
2018,08,11,15,32,20.90
2018,08,11,15,33,20.90
2018,08,11,15,34,20.90
2018,08,11,15,35,21.00
2018,08,11,15,36,21.00
2018,08,11,15,37,21.00
2018,08,11,15,38,21.10
2018,08,11,15,39,21.10
2018,08,11,15,40,21.10
2018,08,11,15,41,21.10
2018,08,11,15,42,21.20
2018,08,11,15,43,21.20
2018,08,11,15,44,21.30
2018,08,11,15,45,21.30
2018,08,11,15,46,21.40
2018,08,11,15,47,21.50
2018,08,11,15,48,21.60
2018,08,11,15,49,21.60
2018,08,11,15,50,21.70
2018,08,11,15,51,21.70
2018,08,11,15,52,21.60
2018,08,11,15,53,21.60
2018,08,11,15,54,21.60
2018,08,11,15,55,21.60
2018,08,11,15,56,21.70
2018,08,11,15,57,21.70
2018,08,11,15,58,21.70
2018,08,11,15,59,21.70
2018,08,11,16,00,21.70
2018,08,11,16,01,21.70
2018,08,11,16,02,21.70
2018,08,11,16,03,21.70
2018,08,11,16,04,21.70
2018,08,11,16,05,21.70
2018,08,11,16,06,21.80
2018,08,11,16,07,21.80
2018,08,11,16,08,21.90
2018,08,11,16,09,22.00
2018,08,11,16,10,22.20
2018,08,11,16,11,22.40
2018,08,11,16,12,22.60
2018,08,11,16,13,22.80
2018,08,11,16,14,23.00
2018,08,11,16,15,23.10
2018,08,11,16,16,23.20
2018,08,11,16,17,23.20
2018,08,11,16,18,23.00
2018,08,11,16,19,22.70
2018,08,11,16,20,22.40
2018,08,11,16,21,22.30
2018,08,11,16,22,22.30
2018,08,11,16,23,22.30
2018,08,11,16,24,22.30
2018,08,11,16,25,22.30
2018,08,11,16,26,22.20
2018,08,11,16,27,22.00
2018,08,11,16,28,21.90
2018,08,11,16,29,21.80
2018,08,11,16,30,21.70
2018,08,11,16,31,21.70
2018,08,11,16,32,21.70
2018,08,11,16,33,21.70
2018,08,11,16,34,21.70
2018,08,11,16,35,21.70
2018,08,11,16,36,21.80
2018,08,11,16,37,21.80
2018,08,11,16,38,21.80
2018,08,11,16,39,21.80
2018,08,11,16,40,21.90
2018,08,11,16,41,21.90
2018,08,11,16,42,22.00
2018,08,11,16,43,22.10
2018,08,11,16,44,22.20
2018,08,11,16,45,22.20
2018,08,11,16,46,22.20
2018,08,11,16,47,22.10
2018,08,11,16,48,22.10
2018,08,11,16,49,22.20
2018,08,11,16,50,22.20
2018,08,11,16,51,22.20
2018,08,11,16,52,22.20
2018,08,11,16,53,22.10
2018,08,11,16,54,22.10
2018,08,11,16,55,22.10
2018,08,11,16,56,22.10
2018,08,11,16,57,21.90
2018,08,11,16,58,21.80
2018,08,11,16,59,21.70
2018,08,11,17,00,21.70
2018,08,11,17,01,21.70
2018,08,11,17,02,21.70
2018,08,11,17,03,21.80
2018,08,11,17,04,21.80
2018,08,11,17,05,21.80
2018,08,11,17,06,21.80
2018,08,11,17,07,21.80
2018,08,11,17,08,21.80
2018,08,11,17,09,21.80
2018,08,11,17,10,21.80
2018,08,11,17,11,21.90
2018,08,11,17,12,21.90
2018,08,11,17,13,22.00
2018,08,11,17,14,22.10
2018,08,11,17,15,22.20
2018,08,11,17,16,22.10
2018,08,11,17,17,22.20
2018,08,11,17,18,22.20
2018,08,11,17,19,22.20